QPF
0.00 0.00 0.01 0.01 0.00 0.00 0.01 0.01 0.02 0.03 0.02 0.03 0.03 0.02 0.02 0.02 0.02 0.04 0.08 0.15 0.14 0.06 0.03 0.02 0.02 0.02 0.03 0.03 0.03 0.03 0.02 0.04 0.05 0.03 0.03 0.03 0.03 0.02 0.02 0.02 0.01 0.01 0.03 0.04
0.00 0.00 0.01 0.00 0.00 0.01 0.02 0.02 0.03 0.03 0.04 0.04 0.02 0.02 0.02 0.02 0.03 0.04 0.07 0.09 0.09 0.06 0.03 0.02 0.02 0.01 0.02 0.03 0.03 0.03 0.02 0.04 0.05 0.05 0.04 0.04 0.04 0.04 0.02 0.02 0.02 0.02 0.03 0.03
0.00 0.00 0.00 0.00 0.00 0.00 0.01 0.02 0.04 0.06 0.09 0.05 0.03 0.03 0.03 0.03 0.02 0.03 0.05 0.06 0.04 0.04 0.03 0.02 0.02 0.02 0.02 0.02 0.03 0.04 0.04 0.04 0.04 0.04 0.04 0.05 0.05 0.03 0.02 0.02 0.02 0.03 0.02 0.02
0.00 0.00 0.00 0.00 0.00 0.00 0.00 0.02 0.04 0.06 0.08 0.05 0.04 0.04 0.03 0.03 0.02 0.02 0.03 0.04 0.03 0.02 0.02 0.03 0.02 0.02 0.02 0.03 0.04 0.04 0.04 0.05 0.05 0.04 0.04 0.04 0.04 0.02 0.03 0.03 0.03 0.03 0.03 0.02
0.00 0.00 0.00 0.00 0.00 0.00 0.00 0.01 0.02 0.03 0.04 0.05 0.09 0.06 0.05 0.05 0.04 0.04 0.05 0.04 0.03 0.02 0.03 0.03 0.03 0.02 0.02 0.02 0.03 0.05 0.07 0.08 0.06 0.05 0.04 0.04 0.04 0.04 0.03 0.03 0.03 0.03 0.04 0.04
0.00 0.00 0.01 0.00 0.00 0.00 0.00 0.01 0.01 0.02 0.03 0.04 0.08 0.10 0.08 0.05 0.04 0.03 0.04 0.05 0.04 0.03 0.03 0.04 0.05 0.05 0.07 0.02 0.02 0.03 0.04 0.04 0.04 0.03 0.03 0.04 0.05 0.06 0.05 0.05 0.05 0.05 0.06 0.06
0.01 0.01 0.01 0.01 0.00 0.00 0.00 0.01 0.01 0.02 0.03 0.04 0.04 0.05 0.05 0.07 0.06 0.04 0.04 0.05 0.04 0.03 0.05 0.06 0.05 0.05 0.06 0.03 0.02 0.02 0.03 0.03 0.03 0.03 0.03 0.04 0.06 0.08 0.07 0.06 0.04 0.04 0.06 0.09
0.01 0.01 0.01 0.01 0.00 0.00 0.01 0.01 0.01 0.02 0.04 0.04 0.03 0.03 0.03 0.06 0.06 0.05 0.05 0.05 0.04 0.05 0.07 0.07 0.05 0.05 0.04 0.03 0.02 0.02 0.02 0.02 0.02 0.05 0.05 0.05 0.07 0.08 0.08 0.07 0.07 0.06 0.05 0.06
0.01 0.01 0.01 0.01 0.00 0.01 0.01 0.01 0.01 0.02 0.03 0.05 0.04 0.03 0.03 0.05 0.04 0.04 0.04 0.03 0.04 0.05 0.07 0.07 0.06 0.07 0.05 0.04 0.03 0.02 0.02 0.02 0.02 0.04 0.06 0.05 0.07 0.08 0.09 0.10 0.12 0.13 0.08 0.06
0.01 0.00 0.00 0.00 0.01 0.01 0.01 0.01 0.01 0.02 0.03 0.03 0.02 0.02 0.03 0.05 0.04 0.04 0.03 0.03 0.05 0.06 0.06 0.06 0.06 0.07 0.06 0.04 0.03 0.02 0.02 0.02 0.02 0.03 0.07 0.05 0.06 0.05 0.05 0.05 0.07 0.11 0.11 0.09
0.00 0.00 0.00 0.00 0.01 0.01 0.01 0.01 0.02 0.03 0.04 0.04 0.02 0.02 0.03 0.06 0.05 0.04 0.05 0.04 0.05 0.04 0.06 0.09 0.09 0.06 0.06 0.04 0.03 0.02 0.02 0.02 0.01 0.02 0.05 0.04 0.03 0.02 0.03 0.03 0.04 0.06 0.06 0.05
0.00 0.00 0.00 0.00 0.01 0.01 0.02 0.01 0.02 0.05 0.08 0.07 0.04 0.03 0.03 0.03 0.04 0.04 0.05 0.07 0.06 0.05 0.05 0.08 0.12 0.10 0.06 0.04 0.03 0.03 0.03 0.03 0.03 0.03 0.02 0.02 0.01 0.01 0.02 0.03 0.03 0.04 0.05 0.04
0.00 0.00 0.01 0.01 0.01 0.01 0.01 0.02 0.01 0.03 0.08 0.05 0.04 0.04 0.04 0.04 0.06 0.06 0.06 0.07 0.06 0.06 0.08 0.08 0.09 0.09 0.06 0.05 0.03 0.03 0.03 0.04 0.04 0.04 0.04 0.03 0.02 0.03 0.03 0.03 0.03 0.03 0.03 0.03
0.00 0.00 0.01 0.02 0.01 0.01 0.01 0.02 0.02 0.02 0.05 0.04 0.04 0.03 0.04 0.05 0.08 0.08 0.08 0.09 0.08 0.08 0.11 0.11 0.09 0.08 0.06 0.05 0.05 0.03 0.02 0.03 0.04 0.04 0.04 0.03 0.03 0.04 0.05 0.05 0.04 0.04 0.05 0.04
0.01 0.01 0.02 0.02 0.01 0.01 0.01 0.02 0.02 0.02 0.03 0.03 0.04 0.03 0.04 0.05 0.07 0.10 0.11 0.14 0.13 0.11 0.10 0.12 0.14 0.12 0.09 0.06 0.06 0.07 0.06 0.05 0.07 0.06 0.04 0.03 0.02 0.03 0.04 0.05 0.04 0.04 0.05 0.05
0.01 0.02 0.02 0.02 0.02 0.02 0.02 0.02 0.02 0.02 0.03 0.02 0.03 0.04 0.05 0.05 0.07 0.11 0.15 0.17 0.18 0.15 0.14 0.12 0.11 0.09 0.06 0.05 0.05 0.06 0.07 0.06 0.11 0.12 0.08 0.05 0.03 0.03 0.03 0.04 0.04 0.04 0.04 0.04
0.03 0.03 0.03 0.02 0.02 0.03 0.03 0.04 0.05 0.05 0.06 0.05 0.05 0.05 0.06 0.07 0.07 0.08 0.13 0.16 0.18 0.20 0.19 0.11 0.05 0.03 0.03 0.04 0.04 0.07 0.07 0.06 0.07 0.09 0.07 0.05 0.04 0.03 0.03 0.04 0.04 0.04 0.04 0.04
0.01 0.02 0.03 0.04 0.04 0.06 0.06 0.06 0.06 0.08 0.09 0.08 0.10 0.06 0.06 0.06 0.06 0.09 0.11 0.13 0.13 0.18 0.17 0.11 0.05 0.03 0.03 0.04 0.03 0.05 0.06 0.05 0.05 0.05 0.03 0.03 0.03 0.02 0.02 0.03 0.04 0.05 0.04 0.05
0.01 0.01 0.03 0.07 0.08 0.09 0.10 0.08 0.06 0.05 0.06 0.08 0.09 0.08 0.05 0.05 0.06 0.12 0.11 0.09 0.10 0.12 0.12 0.09 0.06 0.03 0.03 0.04 0.05 0.03 0.04 0.04 0.04 0.04 0.03 0.02 0.02 0.02 0.02 0.02 0.03 0.05 0.06 0.05
0.03 0.03 0.04 0.07 0.09 0.10 0.09 0.08 0.07 0.07 0.08 0.06 0.05 0.07 0.06 0.05 0.06 0.09 0.09 0.08 0.07 0.07 0.07 0.06 0.05 0.03 0.02 0.03 0.05 0.06 0.06 0.05 0.04 0.04 0.04 0.03 0.03 0.03 0.03 0.03 0.03 0.04 0.04 0.05
0.03 0.04 0.05 0.06 0.08 0.09 0.06 0.05 0.07 0.12 0.11 0.06 0.05 0.07 0.10 0.08 0.06 0.06 0.07 0.05 0.03 0.03 0.03 0.04 0.04 0.03 0.02 0.02 0.03 0.05 0.11 0.08 0.05 0.04 0.05 0.05 0.05 0.04 0.04 0.04 0.03 0.02 0.02 0.03
0.03 0.04 0.05 0.06 0.07 0.07 0.04 0.03 0.05 0.10 0.09 0.06 0.05 0.05 0.07 0.06 0.07 0.06 0.05 0.04 0.03 0.03 0.05 0.05 0.04 0.02 0.01 0.01 0.02 0.04 0.09 0.11 0.07 0.05 0.06 0.06 0.05 0.05 0.04 0.03 0.02 0.01 0.02 0.02
0.05 0.05 0.05 0.06 0.07 0.07 0.04 0.03 0.04 0.06 0.06 0.05 0.05 0.05 0.05 0.04 0.04 0.05 0.05 0.04 0.03 0.04 0.07 0.08 0.05 0.04 0.02 0.01 0.02 0.04 0.05 0.08 0.08 0.06 0.07 0.07 0.06 0.06 0.06 0.04 0.02 0.01 0.02 0.02
0.04 0.04 0.04 0.04 0.05 0.04 0.03 0.02 0.03 0.03 0.03 0.03 0.03 0.04 0.03 0.03 0.04 0.05 0.05 0.04 0.03 0.03 0.04 0.05 0.04 0.04 0.03 0.02 0.03 0.03 0.04 0.05 0.07 0.08 0.08 0.08 0.07 0.06 0.06 0.05 0.03 0.02 0.02 0.02
0.03 0.04 0.03 0.03 0.03 0.02 0.02 0.02 0.02 0.03 0.03 0.04 0.03 0.03 0.04 0.03 0.05 0.06 0.05 0.04 0.04 0.03 0.04 0.04 0.04 0.05 0.04 0.03 0.03 0.04 0.04 0.05 0.05 0.05 0.06 0.06 0.06 0.06 0.05 0.04 0.03 0.03 0.03 0.03
0.03 0.05 0.04 0.03 0.02 0.02 0.02 0.02 0.02 0.02 0.03 0.03 0.05 0.05 0.04 0.04 0.04 0.03 0.03 0.03 0.03 0.04 0.04 0.03 0.04 0.05 0.05 0.04 0.04 0.05 0.06 0.07 0.07 0.07 0.05 0.05 0.04 0.04 0.03 0.02 0.02 0.03 0.03 0.04
MSLP
1009.16 1009.86 1010.37 1010.64 1010.69 1010.57 1010.33 1010.04 1009.73 1009.40 1009.04 1008.61 1008.09 1007.44 1006.66 1005.78 1004.84 1003.92 1003.07 1002.34 1001.77 1001.36 1001.11 1000.99 1000.97 1001.05 1001.20 1001.45 1001.78 1002.23 1002.79 1003.46 1004.19 1004.97 1005.74 1006.46 1007.09 1007.63 1008.08 1008.46 1008.81 1009.17 1009.57 1010.02
1009.26 1009.78 1010.09 1010.20 1010.15 1009.99 1009.80 1009.60 1009.42 1009.24 1009.00 1008.66 1008.16 1007.48 1006.63 1005.63 1004.58 1003.54 1002.59 1001.79 1001.18 1000.76 1000.50 1000.38 1000.36 1000.43 1000.56 1000.78 1001.10 1001.55 1002.13 1002.83 1003.63 1004.47 1005.29 1006.06 1006.73 1007.27 1007.69 1008.04 1008.35 1008.66 1009.03 1009.47
1009.19 1009.48 1009.59 1009.53 1009.39 1009.22 1009.09 1009.02 1009.01 1008.99 1008.90 1008.65 1008.19 1007.48 1006.55 1005.45 1004.27 1003.11 1002.06 1001.19 1000.53 1000.08 999.82 999.70 999.68 999.73 999.85 1000.05 1000.36 1000.80 1001.39 1002.13 1002.97 1003.88 1004.78 1005.60 1006.32 1006.90 1007.33 1007.68 1007.97 1008.26 1008.60 1009.02
1008.98 1009.02 1008.90 1008.69 1008.47 1008.30 1008.26 1008.34 1008.51 1008.67 1008.73 1008.58 1008.16 1007.44 1006.44 1005.23 1003.93 1002.65 1001.50 1000.55 999.85 999.37 999.10 998.97 998.94 998.98 999.08 999.25 999.53 999.96 1000.55 1001.30 1002.19 1003.14 1004.10 1005.00 1005.79 1006.42 1006.91 1007.29 1007.60 1007.90 1008.24 1008.64
1008.70 1008.48 1008.15 1007.78 1007.49 1007.35 1007.40 1007.63 1007.97 1008.31 1008.51 1008.46 1008.09 1007.35 1006.29 1004.98 1003.57 1002.19 1000.95 999.93 999.18 998.68 998.39 998.25 998.21 998.23 998.30 998.44 998.68 999.07 999.63 1000.37 1001.25 1002.23 1003.23 1004.19 1005.04 1005.75 1006.32 1006.76 1007.13 1007.47 1007.84 1008.26
1008.45 1007.99 1007.45 1006.95 1006.60 1006.48 1006.62 1006.98 1007.47 1007.95 1008.26 1008.29 1007.94 1007.19 1006.08 1004.70 1003.21 1001.75 1000.45 999.39 998.60 998.09 997.79 997.65 997.59 997.59 997.62 997.70 997.88 998.20 998.70 999.37 1000.21 1001.17 1002.18 1003.16 1004.07 1004.85 1005.50 1006.03 1006.48 1006.89 1007.31 1007.77
1008.35 1007.66 1006.95 1006.34 1005.94 1005.83 1006.02 1006.47 1007.05 1007.61 1007.99 1008.06 1007.72 1006.95 1005.81 1004.40 1002.88 1001.39 1000.06 998.99 998.20 997.69 997.40 997.26 997.19 997.16 997.14 997.16 997.25 997.47 997.86 998.43 999.17 1000.05 1001.01 1001.98 1002.90 1003.72 1004.44 1005.06 1005.60 1006.10 1006.60 1007.12
1008.46 1007.59 1006.75 1006.05 1005.61 1005.49 1005.69 1006.16 1006.76 1007.33 1007.72 1007.77 1007.42 1006.64 1005.50 1004.09 1002.58 1001.12 999.83 998.80 998.06 997.58 997.32 997.18 997.11 997.04 996.97 996.91 996.91 997.00 997.25 997.68 998.28 999.03 999.88 1000.77 1001.65 1002.48 1003.23 1003.91 1004.53 1005.12 1005.69 1006.28
1008.76 1007.79 1006.87 1006.12 1005.64 1005.49 1005.66 1006.08 1006.62 1007.12 1007.44 1007.44 1007.05 1006.26 1005.13 1003.78 1002.35 1000.99 999.81 998.88 998.22 997.82 997.60 997.49 997.41 997.32 997.20 997.06 996.95 996.91 997.01 997.26 997.69 998.27 998.97 999.73 1000.52 1001.29 1002.03 1002.72 1003.38 1004.02 1004.66 1005.32
1009.20 1008.21 1007.28 1006.52 1006.02 1005.81 1005.89 1006.20 1006.60 1006.97 1007.15 1007.04 1006.60 1005.81 1004.75 1003.50 1002.22 1001.02 1000.00 999.23 998.71 998.40 998.26 998.18 998.12 998.01 997.84 997.63 997.42 997.26 997.21 997.30 997.54 997.93 998.44 999.04 999.68 1000.34 1001.00 1001.65 1002.30 1002.96 1003.63 1004.32
1009.66 1008.73 1007.85 1007.13 1006.61 1006.34 1006.31 1006.45 1006.66 1006.82 1006.83 1006.60 1006.09 1005.32 1004.35 1003.27 1002.19 1001.22 1000.43 999.86 999.50 999.33 999.26 999.24 999.18 999.06 998.87 998.61 998.32 998.07 997.89 997.83 997.90 998.10 998.41 998.82 999.28 999.79 1000.32 1000.87 1001.45 1002.06 1002.71 1003.39
1009.99 1009.19 1008.42 1007.76 1007.26 1006.93 1006.76 1006.71 1006.69 1006.63 1006.44 1006.08 1005.53 1004.81 1003.97 1003.10 1002.27 1001.57 1001.05 1000.71 1000.54 1000.50 1000.52 1000.54 1000.50 1000.37 1000.15 999.85 999.52 999.20 998.94 998.76 998.69 998.72 998.85 999.06 999.34 999.66 1000.03 1000.44 1000.90 1001.42 1002.00 1002.63
1010.08 1009.45 1008.83 1008.26 1007.78 1007.39 1007.09 1006.85 1006.61 1006.33 1005.97 1005.50 1004.94 1004.29 1003.63 1002.99 1002.46 1002.05 1001.80 1001.70 1001.72 1001.81 1001.90 1001.95 1001.91 1001.77 1001.53 1001.21 1000.85 1000.50 1000.17 999.92 999.74 999.64 999.61 999.65 999.74 999.88 1000.06 1000.31 1000.63 1001.03 1001.50 1002.05
1009.90 1009.44 1008.96 1008.49 1008.04 1007.61 1007.20 1006.79 1006.36 1005.90 1005.40 1004.86 1004.32 1003.79 1003.32 1002.96 1002.71 1002.61 1002.63 1002.76 1002.94 1003.13 1003.27 1003.32 1003.27 1003.10 1002.83 1002.48 1002.11 1001.72 1001.37 1001.06 1000.81 1000.61 1000.45 1000.34 1000.26 1000.23 1000.26 1000.35 1000.53 1000.79 1001.15 1001.60
1009.50 1009.17 1008.81 1008.42 1007.99 1007.53 1007.03 1006.48 1005.91 1005.32 1004.73 1004.19 1003.71 1003.33 1003.08 1002.98 1003.02 1003.20 1003.46 1003.78 1004.09 1004.34 1004.49 1004.52 1004.42 1004.20 1003.88 1003.50 1003.09 1002.68 1002.29 1001.94 1001.63 1001.34 1001.08 1000.85 1000.65 1000.48 1000.37 1000.34 1000.41 1000.57 1000.85 1001.21
1008.98 1008.72 1008.43 1008.08 1007.66 1007.16 1006.59 1005.96 1005.30 1004.64 1004.04 1003.53 1003.15 1002.94 1002.91 1003.06 1003.36 1003.77 1004.23 1004.69 1005.07 1005.35 1005.48 1005.45 1005.27 1004.97 1004.57 1004.13 1003.66 1003.20 1002.77 1002.36 1001.98 1001.62 1001.28 1000.95 1000.65 1000.39 1000.20 1000.10 1000.11 1000.23 1000.46 1000.80
1008.53 1008.26 1007.96 1007.59 1007.15 1006.62 1006.00 1005.32 1004.63 1003.96 1003.39 1002.96 1002.71 1002.67 1002.83 1003.20 1003.70 1004.29 1004.88 1005.42 1005.84 1006.10 1006.17 1006.06 1005.78 1005.37 1004.88 1004.34 1003.79 1003.25 1002.74 1002.25 1001.79 1001.34 1000.91 1000.50 1000.14 999.83 999.62 999.51 999.53 999.68 999.95 1000.31
1008.29 1007.93 1007.55 1007.12 1006.62 1006.04 1005.39 1004.70 1004.02 1003.40 1002.89 1002.56 1002.45 1002.56 1002.89 1003.40 1004.04 1004.73 1005.40 1005.96 1006.37 1006.58 1006.58 1006.36 1005.98 1005.46 1004.85 1004.20 1003.54 1002.89 1002.26 1001.66 1001.08 1000.53 1000.01 999.54 999.14 998.83 998.65 998.60 998.70 998.94 999.32 999.79
1008.37 1007.86 1007.34 1006.80 1006.22 1005.59 1004.93 1004.26 1003.62 1003.06 1002.65 1002.43 1002.43 1002.65 1003.08 1003.69 1004.39 1005.11 1005.78 1006.32 1006.68 1006.82 1006.74 1006.44 1005.96 1005.34 1004.62 1003.86 1003.08 1002.30 1001.53 1000.80 1000.09 999.43 998.82 998.29 997.87 997.58 997.47 997.52 997.76 998.17 998.70 999.34
1008.76 1008.06 1007.38 1006.72 1006.05 1005.38 1004.71 1004.08 1003.51 1003.04 1002.73 1002.60 1002.68 1002.97 1003.44 1004.05 1004.74 1005.43 1006.05 1006.53 1006.82 1006.90 1006.74 1006.38 1005.83 1005.15 1004.36 1003.51 1002.62 1001.72 1000.83 999.95 999.12 998.34 997.64 997.06 996.64 996.40 996.37 996.57 996.97 997.56 998.29 999.11
1009.35 1008.47 1007.64 1006.86 1006.12 1005.43 1004.78 1004.21 1003.72 1003.35 1003.12 1003.07 1003.19 1003.49 1003.94 1004.50 1005.11 1005.71 1006.23 1006.63 1006.85 1006.87 1006.68 1006.29 1005.73 1005.03 1004.22 1003.32 1002.37 1001.39 1000.39 999.41 998.46 997.59 996.83 996.21 995.79 995.61 995.68 996.01 996.57 997.34 998.25 999.25
1009.97 1008.96 1008.01 1007.15 1006.38 1005.70 1005.10 1004.61 1004.21 1003.94 1003.79 1003.78 1003.91 1004.17 1004.55 1005.00 1005.49 1005.96 1006.36 1006.66 1006.81 1006.80 1006.61 1006.25 1005.73 1005.08 1004.30 1003.42 1002.47 1001.46 1000.42 999.37 998.36 997.43 996.63 996.01 995.61 995.48 995.63 996.07 996.76 997.66 998.71 999.84
1010.41 1009.33 1008.34 1007.45 1006.70 1006.07 1005.56 1005.17 1004.88 1004.70 1004.62 1004.63 1004.74 1004.94 1005.20 1005.52 1005.85 1006.17 1006.45 1006.66 1006.76 1006.74 1006.59 1006.30 1005.88 1005.32 1004.64 1003.85 1002.96 1001.99 1000.96 999.92 998.91 997.98 997.18 996.58 996.21 996.13 996.35 996.85 997.62 998.59 999.70 1000.88
1010.51 1009.43 1008.46 1007.62 1006.94 1006.41 1006.02 1005.76 1005.59 1005.51 1005.48 1005.51 1005.58 1005.70 1005.84 1006.01 1006.19 1006.36 1006.52 1006.65 1006.72 1006.72 1006.64 1006.45 1006.15 1005.74 1005.20 1004.54 1003.77 1002.91 1001.97 1001.00 1000.05 999.18 998.43 997.88 997.56 997.52 997.78 998.31 999.08 1000.05 1001.14 1002.29
1010.16 1009.16 1008.27 1007.55 1006.99 1006.61 1006.37 1006.24 1006.21 1006.22 1006.25 1006.29 1006.33 1006.36 1006.39 1006.42 1006.47 1006.52 1006.59 1006.65 1006.71 1006.75 1006.74 1006.67 1006.51 1006.26 1005.89 1005.39 1004.78 1004.07 1003.27 1002.43 1001.60 1000.83 1000.18 999.71 999.46 999.46 999.73 1000.24 1000.97 1001.87 1002.86 1003.90
1009.40 1008.51 1007.77 1007.19 1006.80 1006.58 1006.50 1006.53 1006.62 1006.72 1006.81 1006.87 1006.88 1006.86 1006.80 1006.74 1006.68 1006.65 1006.65 1006.68 1006.75 1006.82 1006.89 1006.93 1006.90 1006.79 1006.58 1006.25 1005.81 1005.26 1004.63 1003.95 1003.28 1002.66 1002.15 1001.79 1001.61 1001.66 1001.92 1002.39 1003.04 1003.81 1004.65 1005.52
Thickness
5764 5746 5738 5746 5751 5750 5749 5745 5743 5757 5776 5770 5763 5765 5774 5783 5783 5782 5783 5782 5782 5782 5785 5784 5783 5781 5778 5775 5772 5769 5765 5762 5760 5755 5752 5750 5747 5747 5746 5745 5744 5743 5741 5739
5742 5738 5755 5761 5760 5754 5748 5741 5742 5755 5771 5767 5758 5761 5771 5776 5777 5779 5777 5777 5777 5776 5775 5776 5776 5775 5772 5769 5767 5764 5762 5760 5757 5754 5752 5749 5746 5744 5743 5742 5741 5740 5738 5736
5734 5750 5764 5759 5753 5748 5747 5741 5743 5746 5758 5762 5754 5746 5757 5767 5773 5777 5778 5777 5778 5775 5771 5771 5770 5769 5767 5764 5762 5761 5759 5756 5754 5752 5749 5745 5741 5739 5737 5736 5736 5736 5735 5733
5740 5756 5759 5752 5750 5751 5739 5756 5755 5751 5739 5730 5741 5718 5741 5754 5759 5766 5770 5771 5772 5773 5770 5768 5767 5764 5762 5761 5759 5757 5755 5752 5750 5749 5746 5741 5736 5733 5733 5732 5731 5731 5731 5729
5740 5754 5751 5747 5754 5758 5751 5763 5757 5750 5735 5725 5730 5717 5727 5745 5744 5753 5761 5766 5768 5769 5768 5766 5764 5763 5761 5759 5755 5753 5750 5748 5746 5745 5742 5738 5734 5732 5731 5729 5727 5726 5726 5725
5747 5761 5758 5757 5765 5765 5762 5754 5745 5735 5718 5703 5720 5713 5714 5730 5741 5748 5755 5761 5764 5764 5763 5762 5761 5759 5756 5754 5751 5748 5745 5742 5741 5740 5738 5735 5732 5729 5726 5723 5721 5721 5720 5719
5734 5747 5759 5764 5751 5754 5749 5723 5700 5695 5689 5696 5722 5714 5716 5740 5751 5753 5754 5757 5759 5761 5758 5755 5754 5751 5749 5748 5746 5743 5740 5737 5736 5735 5733 5731 5729 5726 5723 5720 5718 5716 5714 5713
5713 5718 5745 5756 5748 5738 5737 5723 5693 5682 5683 5695 5715 5709 5724 5747 5754 5757 5756 5756 5756 5755 5753 5751 5749 5747 5746 5744 5742 5739 5736 5734 5732 5731 5729 5727 5725 5722 5719 5717 5714 5712 5711 5710
5709 5715 5748 5757 5759 5748 5730 5721 5722 5701 5698 5691 5698 5711 5726 5743 5744 5746 5748 5749 5748 5748 5748 5747 5744 5743 5741 5739 5737 5736 5733 5730 5728 5727 5725 5722 5720 5717 5715 5713 5711 5708 5707 5707
5720 5711 5733 5750 5752 5748 5740 5730 5710 5693 5679 5677 5691 5699 5704 5721 5728 5735 5739 5741 5743 5743 5743 5742 5740 5738 5737 5736 5734 5732 5730 5726 5724 5722 5720 5718 5716 5714 5711 5709 5706 5704 5703 5703
5721 5705 5716 5728 5726 5725 5727 5721 5708 5693 5688 5675 5671 5688 5722 5721 5727 5730 5732 5736 5738 5738 5738 5737 5736 5734 5732 5730 5727 5726 5724 5721 5718 5716 5715 5713 5710 5709 5707 5704 5702 5701 5699 5698
5716 5700 5694 5711 5732 5738 5729 5719 5705 5687 5682 5682 5675 5686 5724 5724 5726 5727 5727 5730 5732 5733 5732 5731 5730 5727 5724 5722 5720 5719 5718 5715 5714 5712 5710 5707 5705 5703 5701 5699 5698 5696 5694 5693
5710 5692 5678 5687 5701 5713 5712 5713 5708 5696 5683 5676 5672 5684 5717 5718 5718 5720 5721 5722 5723 5724 5723 5722 5720 5718 5716 5715 5713 5712 5711 5709 5708 5707 5704 5701 5699 5697 5695 5694 5692 5691 5689 5687
5710 5685 5677 5672 5681 5694 5696 5703 5704 5693 5675 5675 5681 5688 5699 5703 5705 5709 5713 5714 5715 5715 5714 5712 5711 5710 5708 5708 5707 5706 5705 5704 5702 5700 5698 5695 5693 5691 5690 5688 5686 5684 5683 5681
5695 5678 5684 5689 5697 5698 5694 5697 5700 5693 5687 5680 5684 5687 5692 5696 5700 5703 5707 5708 5708 5707 5705 5704 5702 5703 5701 5700 5699 5700 5699 5698 5696 5694 5691 5689 5687 5686 5684 5682 5680 5679 5677 5675
5679 5673 5677 5680 5691 5692 5686 5691 5694 5691 5689 5686 5685 5683 5693 5695 5697 5698 5699 5700 5699 5699 5699 5698 5697 5696 5695 5694 5693 5693 5692 5691 5689 5687 5685 5683 5682 5679 5677 5676 5674 5672 5670 5669
5667 5666 5663 5661 5678 5680 5666 5676 5682 5681 5682 5681 5675 5680 5686 5686 5688 5689 5691 5692 5692 5693 5694 5693 5692 5691 5689 5688 5688 5687 5687 5684 5682 5680 5679 5677 5675 5673 5672 5671 5668 5666 5665 5663
5660 5656 5651 5651 5658 5648 5659 5677 5680 5675 5674 5677 5677 5679 5681 5682 5682 5684 5685 5686 5685 5686 5687 5687 5687 5685 5684 5683 5683 5682 5680 5677 5675 5673 5672 5671 5669 5668 5666 5664 5662 5661 5659 5658
5663 5653 5645 5640 5639 5646 5658 5667 5668 5664 5660 5669 5669 5672 5674 5677 5676 5675 5678 5679 5679 5680 5680 5680 5681 5679 5678 5677 5676 5675 5672 5670 5668 5666 5666 5666 5665 5663 5661 5658 5656 5655 5654 5652
5654 5649 5640 5635 5633 5632 5644 5661 5670 5663 5648 5660 5663 5664 5666 5668 5659 5660 5668 5671 5673 5674 5674 5674 5674 5673 5671 5671 5670 5668 5665 5663 5661 5661 5660 5660 5660 5658 5656 5654 5652 5650 5648 5647
5632 5632 5630 5628 5626 5630 5644 5656 5662 5642 5637 5650 5653 5656 5657 5655 5655 5657 5660 5663 5665 5667 5667 5668 5668 5665 5664 5665 5663 5660 5658 5657 5657 5656 5655 5655 5654 5652 5651 5649 5647 5645 5643 5641
5619 5619 5619 5618 5615 5618 5638 5643 5637 5634 5641 5643 5645 5647 5649 5650 5651 5651 5652 5654 5655 5656 5658 5658 5658 5656 5657 5657 5656 5653 5651 5652 5652 5651 5649 5648 5647 5646 5645 5642 5641 5640 5638 5635
5614 5614 5612 5612 5611 5620 5628 5631 5633 5635 5635 5636 5636 5638 5641 5641 5641 5642 5643 5644 5645 5646 5648 5649 5648 5647 5647 5649 5649 5646 5646 5647 5646 5644 5642 5640 5639 5639 5637 5635 5634 5632 5631 5629
5610 5613 5609 5606 5609 5616 5620 5624 5627 5630 5630 5631 5630 5631 5632 5631 5632 5632 5633 5634 5635 5637 5639 5640 5639 5638 5638 5639 5640 5640 5640 5640 5638 5636 5635 5633 5631 5630 5629 5628 5627 5626 5624 5622
5599 5602 5599 5597 5604 5609 5612 5615 5619 5621 5623 5624 5623 5623 5623 5624 5624 5624 5624 5625 5627 5628 5629 5630 5629 5630 5630 5631 5631 5633 5633 5633 5630 5629 5627 5626 5625 5623 5621 5620 5620 5619 5618 5617
5592 5591 5589 5591 5598 5598 5601 5608 5612 5613 5613 5614 5614 5613 5615 5616 5616 5616 5615 5616 5618 5619 5620 5621 5621 5622 5622 5623 5624 5625 5626 5625 5623 5621 5620 5619 5617 5616 5615 5613 5612 5612 5612 5611